sat.trackr.live / text

‹ back to catalog

OTTER

NORAD 66680 · 2025-276Q

PAYLOAD ACTIVE UNKNOWN

§ Identity

Operator
Country
GER
Launch date
2025-11-28
Launch site
AFWTR
Launch vehicle
Mass (kg)
RCS (m²)

External: N2YO · Heavens-Above · Gunter

§ Orbital elements

Epoch: 2026-05-25T03:58:43.539744Z

Period
94.80 min
Inclination
97.4209°
Eccentricity
0.0007564
Mean motion
15.18909288 rev/d
Perigee alt
503.9 km
Apogee alt
514.3 km
Semi-major
6,887.3 km
B*
2.6839e-4
RAAN
218.9388°
Arg perigee
83.3232°
Mean anomaly
276.8863°
Rev number
2,691

§ Raw data

OTTER1 66680U 25276Q   26145.16578171  .00005538  00000+0  26839-3 0  99932 66680  97.4209 218.9388 0007564  83.3232 276.8863 15.18909288 26910

JSON: /api/v1/satellites/66680 · /tle

For live sub-satellite position, see the globe view (requires WebGL).

§ Visibility from observer

Set your observer location to see the next 7 days of passes ≥ 10°. The values pass through the URL so the page stays shareable.

No JS? Fill the form by hand. The geolocation button needs JavaScript.